Flag for Brazil

Past Weather in Codó, Maranhão, Brazil — Yesterday and Last 2 Weeks

Now
91 °F

Sunny.


Feels Like: 92 °F
Forecast: 94 / 72 °F
Wind: 7 mph from Southeast

Location: Teresina Aeroporto

Current Time: Jul 14, 2020 at 1:47:32 pm

Latest Report: Jul 14, 2020 at 1:00 pm


Visibility: 10 mi

Pressure: 29.92 "Hg

Humidity: 38%

Dew Point: 63 °F

Location of CodóLocation

Past Weather in Codó — Graph

°F

Codó Temperature Yesterday

Maximum temperature yesterday: 93 °F (at 2:00 pm)
Minimum temperature yesterday: 77 °F (at 12:00 am)
Average temperature yesterday: 83 °F

High & Low Weather Summary for the Past Weeks

 TemperatureHumidityPressure
High95 °F (Jul 9, 2:00 pm)94% (Jul 1, 2:00 am)29.98 "Hg (Jul 1, 2:00 am)
Low72 °F (Jul 6, 6:00 am)34% (Jul 8, 4:00 pm)29.80 "Hg (Jun 30, 5:00 pm)
Average83 °F67%29.88 "Hg
* Reported Jun 29 12:00 pm — Jul 14 12:00 pm, Codó. Weather by CustomWeather, © 2020

Note: Actual official high and low records may vary slightly from our data, if they occured in-between our weather recording intervals... More about our weather records

Codó Weather History for the Previous 24 Hours

Scroll right to see more
 ConditionsComfort  
Time TempWeatherWind HumidityBarometerVisibility
12:00 pm
Tue, Jul 14
90 °FSunny.9 mph41%29.92 "Hg10 mi
11:00 am90 °FSunny.6 mph41%29.95 "Hg10 mi
10:00 am88 °FSunny.6 mph46%29.95 "Hg10 mi
9:00 am84 °FSunny.6 mph55%29.98 "Hg10 mi
8:00 am79 °FSunny.9 mph74%29.98 "Hg10 mi
7:00 am75 °FSunny.2 mph89%29.95 "Hg10 mi
6:00 am73 °FClear.No wind89%29.92 "Hg10 mi
5:00 am73 °FClear.No wind89%29.92 "Hg10 mi
4:00 am73 °FClear.5 mph89%29.89 "Hg10 mi
3:00 am75 °FClear.3 mph83%29.89 "Hg10 mi
2:00 am77 °FClear.No wind79%29.89 "Hg10 mi
1:00 am75 °FClear.No wind89%29.92 "Hg10 mi
12:00 am77 °FClear.2 mph83%29.92 "Hg10 mi
11:00 pm
Mon, Jul 13
77 °FClear.2 mph83%29.92 "Hg10 mi
10:00 pm79 °FClear.3 mph79%29.92 "Hg10 mi
9:00 pm81 °FClear.3 mph74%29.92 "Hg10 mi
8:00 pm82 °FClear.No wind62%29.89 "Hg10 mi
7:00 pm84 °FClear.3 mph58%29.89 "Hg10 mi
6:00 pm88 °FClear.6 mph46%29.89 "Hg10 mi
5:00 pm91 °FSunny.5 mph41%29.86 "Hg10 mi
4:00 pm93 °FPassing clouds.7 mph39%29.86 "HgN/A
3:00 pm93 °FPartly sunny.7 mph41%29.86 "HgN/A
2:00 pm93 °FPartly sunny.7 mph41%29.89 "HgN/A
1:00 pm91 °FScattered clouds.8 mph44%29.92 "HgN/A
Weather by CustomWeather, © 2020

See weather overview